Fort Rucker, AL

8:25 AM CST on February 09, 2016 (GMT -0600)
Fort Rucker / Ozark

Weather History for KLOR - October, 2013

Change the Weather History Date:

Tuesday, October 8, 2013

  Actual Average (KDHN) Record (KDHN)
Temperature  
Mean Temperature 68 °F 70 °F  
Max Temperature 80 °F 82 °F 92 °F (1941)
Min Temperature 57 °F 58 °F 40 °F (1964)
Degree Days  
Heating Degree Days 0 1  
Month to date heating degree days 3  
Since 1 July heating degree days 5  
Cooling Degree Days 4 6  
Month to date cooling degree days 53  
Year to date cooling degree days 2281  
Growing Degree Days 18 (Base 50)    
Moisture  
Dew Point 62 °F    
Average Humidity 75    
Maximum Humidity 87    
Minimum Humidity 61    
Precipitation  
Precipitation 0.00 in 0.11 in 1.53 in (1962)
Month to date precipitation 0.87  
Year to date precipitation 42.85  
Sea Level Pressure  
Sea Level Pressure 29.97 in    
Wind  
Wind Speed 4 mph (NNE)    
Max Wind Speed 8 mph    
Max Gust Speed -    
Visibility 10 miles    
Events      
T = Trace of Precipitation, MM = Missing Value Source: NWS Daily Summary

Daily Weather History Graph

Daily Weather History Graph

Search for Another Location

Airport or City:

Trip Planner

Search our weather history database for the weather conditions in past years. The results will help you decide how hot, cold, wet, or windy it might be!

Date:

Astronomy

Oct. 08, 2013 Rise Set
Actual Time 6:41 AM CDT 6:19 PM CDT
Civil Twilight 6:17 AM CDT 6:43 PM CDT
Nautical Twilight 5:48 AM CDT 7:11 PM CDT
Astronomical Twilight 5:20 AM CDT 7:39 PM CDT
Moon 10:21 AM CDT (10/8) 9:09 PM CDT (10/8)
Length of Visible Light 12h 26m
Length of Day
11h 37m
Waxing Crescent, 16% of the Moon is Illuminated
Oct 8
Waxing Crescent
Oct 11
First Quarter
Oct 18
Full
Oct 26
Last Quarter
Nov 3
New

Hourly Weather History & Observations

Time (CDT) Temp. Heat Index Dew Point Humidity Pressure Visibility Wind Dir Wind Speed Gust Speed Precip Events Conditions
12:53 AM 63.0 °F - 55.0 °F 75% 29.92 in 10.0 mi North 5.8 mph - N/A   Mostly Cloudy
1:53 AM 63.0 °F - 55.0 °F 75% 29.93 in 10.0 mi North 4.6 mph - N/A   Overcast
2:53 AM 61.0 °F - 53.1 °F 75% 29.92 in 10.0 mi North 4.6 mph - N/A   Mostly Cloudy
3:53 AM 60.1 °F - 53.1 °F 78% 29.92 in 10.0 mi North 5.8 mph - N/A   Mostly Cloudy
4:53 AM 59.0 °F - 53.1 °F 81% 29.92 in 10.0 mi North 4.6 mph - N/A   Clear
5:53 AM 57.0 °F - 53.1 °F 87% 29.94 in 10.0 mi NNW 3.5 mph - N/A   Scattered Clouds
6:53 AM 57.0 °F - 53.1 °F 87% 29.94 in 10.0 mi NNE 3.5 mph - N/A   Partly Cloudy
7:53 AM 59.0 °F - 54.0 °F 83% 29.96 in 10.0 mi NNE 4.6 mph - N/A   Mostly Cloudy
8:53 AM 64.9 °F - 55.9 °F 73% 29.97 in 10.0 mi Calm Calm - N/A   Mostly Cloudy
9:18 AM 68.0 °F - 59.0 °F 73% 29.98 in 10.0 mi Calm Calm - N/A   Overcast
9:53 AM 68.0 °F - 61.0 °F 78% 29.98 in 10.0 mi NE 4.6 mph - N/A   Overcast
10:53 AM 69.1 °F - 62.1 °F 78% 29.99 in 10.0 mi Calm Calm - N/A   Overcast
11:53 AM 73.0 °F - 64.0 °F 73% 29.99 in 10.0 mi Variable 3.5 mph - N/A   Overcast
12:10 PM 73.4 °F - 64.4 °F 73% 29.99 in 10.0 mi Variable 3.5 mph - N/A   Overcast
12:53 PM 77.0 °F - 66.0 °F 69% 29.96 in 10.0 mi Variable 3.5 mph - N/A   Overcast
1:53 PM 80.1 °F 82.3 °F 66.9 °F 64% 29.95 in 10.0 mi North 5.8 mph - N/A   Overcast
2:26 PM 80.6 °F 82.7 °F 66.2 °F 61% 29.95 in 10.0 mi ENE 5.8 mph - N/A   Overcast
2:36 PM 78.8 °F - 66.2 °F 65% 29.95 in 10.0 mi Calm Calm - N/A   Overcast
2:53 PM 79.0 °F - 66.9 °F 66% 29.94 in 10.0 mi ENE 4.6 mph - N/A   Overcast
3:53 PM 80.1 °F 82.7 °F 68.0 °F 67% 29.94 in 10.0 mi NE 3.5 mph - N/A   Mostly Cloudy
4:53 PM 80.1 °F 82.7 °F 68.0 °F 67% 29.95 in 10.0 mi NW 4.6 mph - N/A   Partly Cloudy
5:53 PM 77.0 °F - 68.0 °F 74% 29.96 in 10.0 mi NNW 4.6 mph - N/A   Mostly Cloudy
6:53 PM 75.9 °F - 68.0 °F 76% 29.98 in 10.0 mi NNE 4.6 mph - N/A   Overcast
7:53 PM 73.9 °F - 66.9 °F 79% 30.00 in 10.0 mi Variable 3.5 mph - N/A   Overcast
8:53 PM 72.0 °F - 66.0 °F 81% 30.01 in 10.0 mi ENE 3.5 mph - N/A   Scattered Clouds
9:53 PM 71.1 °F - 64.0 °F 78% 30.03 in 10.0 mi ENE 8.1 mph - N/A   Mostly Cloudy
10:53 PM 69.1 °F - 63.0 °F 81% 30.04 in 10.0 mi ENE 4.6 mph - N/A   Scattered Clouds
11:53 PM 66.9 °F - 62.1 °F 84% 30.03 in 10.0 mi ENE 3.5 mph - N/A   Clear